ONEWEB-0274 (48992 NORAD) Tracking and Keplerian Element Data

This shows tracking and keplerian element data for the satellite.

Feedback or suggestion? Click here.




ElementValue
Catalog48992
NameONEWEB-0274
Epoch Orbit1296
Epoch Day262.16668981
Epoch Year2021
RAAN213.445
Inclination87.8059
Eccentricity0.0009701
Argument of Perigee23.0956
Mean Anonmoly0.1065
Mean Motion13.60122548
Decay Rate1.5E-07
L11 48992U 21060AB 21262.16668981 .00000015 00000-0 00000+0 0 9994
L22 48992 87.8059 213.4450 0009701 23.0956 0.1065 13.60122548 12964

Live tracking and technical data element details for ONEWEB-0274 (NORAD 48992). ONEWEB-0274 can be tracked NOW for your location showing map with azimuth and elevation plus other details from your city location.

Track the satellite on the map from your city or location and see movement details for azimuth, elevation, latitude, longitude, range, height, and movement on the map or in text.







IsCatalogInMostPopularTable: catalog: 48992, numindb: 18
Update: records affected: 1



GetName: 48992 ONEWEB-0274

Hit Count: updated at: Fri, 24 Sep 2021 18:43:48 GMT